Regional Weather Roundup
Issued by NWS Portland, ME

Home | Current Version | Previous Version | Text Only | Print | Product List | Glossary On
Versions: 1 2 3 4 5 6 7 8 9 10 11 12 13 14 15 16 17 18 19 20 21 22 23 24 25 26 27 28 29 30 31 32 33 34 35 36 37 38 39 40 41 42 43 44 45 46 47 48 49 50
000
ASUS41 KGYX 270610
RWRGYX
WEATHER ROUNDUP FOR MAINE AND NEW HAMPSHIRE
NATIONAL WEATHER SERVICE GRAY ME
200 AM EDT WED MAY 27 2015

MEZ002-005-006-010-012-015-018-020-021-024-026-027-029-270700-
MAINE

CITY           SKY/WX    TMP DP  RH WIND       PRES   REMARKS
PORTLAND       MOCLDY    73  63  70 SE6       30.09S
6HR MIN TEMP:  68; 6HR MAX TEMP:  78;

BAR HARBOR     CLEAR     57  55  94 CALM      30.09S
WISCASSET      PTCLDY    61  58  90 CALM      30.09S
6HR MIN TEMP:  60; 6HR MAX TEMP:  72;

ROCKLAND       PTCLDY    61  55  82 SW6       30.07S
FRYEBURG       MOCLDY    72  62  71 SW3       30.09S
6HR MIN TEMP:  68; 6HR MAX TEMP:  78;

LEWISTONAUBURN PTCLDY    66  61  82 CALM      30.09S
AUGUSTA        CLEAR     64  60  87 S3        30.08S
6HR MIN TEMP:  63; 6HR MAX TEMP:  73;

WATERVILLE     CLEAR     63  57  82 S5        30.05S
BANGOR         PTCLDY    60  57  89 S5        30.07S
6HR MIN TEMP:  59; 6HR MAX TEMP:  73;

GREENVILLE       N/A     63  55  75 CALM      30.07S
6HR MIN TEMP:  61; 6HR MAX TEMP:  73;

MILLINOCKET    PTCLDY    61  59  93 CALM      30.05S
6HR MIN TEMP:  61; 6HR MAX TEMP:  73;

HOULTON        CLEAR     67  60  78 S6        30.02R
6HR MIN TEMP:  64; 6HR MAX TEMP:  75;

PRESQUE ISLE   CLOUDY    68  57  68 SW7       30.02S
6HR MIN TEMP:  66; 6HR MAX TEMP:  75;

FRENCHVILLE    PTCLDY    62  59  90 W10       30.01R
6HR MIN TEMP:  62; 6HR MAX TEMP:  69; 6HR PCP: TRACE;

CARIBOU        MOCLDY    65  60  84 W5        30.00F
6HR MIN TEMP:  64; 6HR MAX TEMP:  73; 6HR PCP:  0.03;

$$

NHZ002-005-008-009-011-012-014-270700-
NEW HAMPSHIRE

CITY           SKY/WX    TMP DP  RH WIND       PRES   REMARKS
PORTSMOUTH     CLOUDY    73  62  68 SW9       30.09S
ROCHESTER      PTCLDY    69  62  78 CALM      30.10F
6HR MIN TEMP:  69; 6HR MAX TEMP:  81;

NASHUA         MOCLDY    73  63  71 CALM      30.13S
MANCHESTER     MOCLDY    72  61  68 S6        30.10F
6HR MIN TEMP:  72; 6HR MAX TEMP:  83;

CONCORD        PTCLDY    70  63  78 CALM      30.11F
6HR MIN TEMP:  69; 6HR MAX TEMP:  81;

LACONIA        PTCLDY    72  63  73 CALM      30.08S
PLYMOUTH       FAIR      62  62 100 CALM      30.10F
BERLIN         MOCLDY    55  53  93 CALM      30.11R
6HR MIN TEMP:  55; 6HR MAX TEMP:  75;

WHITEFIELD     CLOUDY    62  58  86 CALM      30.10S
6HR MIN TEMP:  60; 6HR MAX TEMP:  75;

JAFFREY        CLOUDY    68  61  78 SW3       30.16F
6HR MIN TEMP:  68; 6HR MAX TEMP:  76;

KEENE          CLOUDY   N/A N/A N/A S7        30.14S
LEBANON        PTCLDY    68  63  84 S3        30.09F
6HR MIN TEMP:  66; 6HR MAX TEMP:  82;

MT WASHINGTON  FOG       50  50 100 W32         N/A  VSB 1/8
6HR MIN TEMP:  51; 6HR MAX TEMP:  55;

$$

VTZ005-007-008-270700-
VERMONT

CITY           SKY/WX    TMP DP  RH WIND       PRES   REMARKS
ST JOHNSBURY     N/A     63  59  87 MISG      30.07S
BURLINGTON     MOCLDY    76  61  59 S7        30.03F
$$

MAZ007-012-024-CTZ003-RIZ002-NYZ038-NYZ072-270700-
SOUTHERN NEW ENGLAND AND NY

CITY           SKY/WX    TMP DP  RH WIND       PRES   REMARKS
BOSTON         MOCLDY    68  59  73 SW14      30.15S
WORCESTER      MOCLDY    66  59  78 SW14      30.17F
NANTUCKET      MOCLDY    59  57  93 SW14      30.24F
PROVIDENCE     PTCLDY    63  59  87 S6        30.20S
HARTFORD       PTCLDY    66  59  78 S7        30.15S
ALBANY         CLOUDY    74  63  68 S10       30.09F
NEW YORK CITY  MOCLDY    73  60  63 SW10      30.15F
$$

ANZ081-ANZ082-ANZ150-NHZ014-MEZ023>029-270700-
COASTAL MARINE OBSERVATIONS

STATION/POSITION TIME  TEMP    WIND        PRES    WAVE
                       AIR SEA DIR/SP/G            HT/PER
                 (UTC) (F)     (DEG/KT/KT) (MB)    (FT/S)
MOUNT DESERT ROC 0600   50     220/ 13/ 14   N/A
MATINICUS ROCK   0600   52     230/ 18/ 18   N/A
ISLE OF SHOALS   0600   68     220/ 18/ 19   N/A
JEFFREYS LEDGE   0503      48                N/A     3/ 5
CASHES LEDGE BUO 0550   55 50                N/A     5/ 6
GEORGES BANK BUO 0550   56 49  210/ 12/ 12   N/A     3/ 6
$$

.............KEY..............
   WCI - WIND CHILL
   TC  - TEMPERATURE IN CELSIUS
   VSB - VISIBILITY IN MILES
   HX  - HEAT INDEX
   FAIR- INDICATES FEW OR NO CLOUDS BELOW 12,000 FT, WITH NO
         SIGNIFICANT WEATHER AND/OR OBSTRUCTIONS TO VISIBILITY.





USA.gov is the U.S. government's official web portal to all federal, state and local government web resources and services.